| time (UTC) | temp F | wind direction | speed MPH | gust MPH | rain 1hr in | rain 24hr in | rain mn in | humidity % | barometer mb |
| 20260901224547 | 66 | 206 | 0.0 | 1.0 | 0.00 | 0.04 | 0.00 | 79 | |
| 20260901224510 | 66 | 206 | 0.0 | 1.0 | 0.00 | 0.04 | 0.00 | 79 | |
| 20260901204111 | 68 | 191 | 0.0 | 1.0 | 0.00 | 0.04 | 0.00 | 77 | |
| 20260901193911 | 68 | 194 | 1.0 | 2.0 | 0.00 | 0.04 | 0.04 | 78 | |
| 20260901173511 | 69 | 198 | 0.0 | 0.0 | 0.00 | 0.04 | 0.04 | 77 | |
| 20260901170411 | 69 | 26 | 1.0 | 3.0 | 0.00 | 0.04 | 0.04 | 79 | |
| 20260901163311 | 70 | 16 | 3.0 | 4.0 | 0.00 | 0.04 | 0.04 | 77 | |
| 20260901160211 | 70 | 22 | 2.0 | 2.0 | 0.00 | 0.04 | 0.04 | 79 | |
| 20260901150011 | 67 | 355 | 0.0 | 0.0 | 0.00 | 0.04 | 0.04 | 87 | |
| 20260901135811 | 66 | 15 | 0.0 | 0.0 | 0.04 | 0.04 | 0.04 | 87 | |
| 20260901125611 | 66 | 15 | 0.0 | 0.0 | 0.00 | 0.00 | 0.00 | 85 | |
| 20260901115412 | 65 | 175 | 0.0 | 0.0 | 0.00 | 0.00 | 0.00 | 85 | |
| 20260901112312 | 65 | 175 | 0.0 | 0.0 | 0.00 | 0.00 | 0.00 | 85 | |
| 20260901105212 | 65 | 175 | 0.0 | 0.0 | 0.00 | 0.00 | 0.00 | 85 | |
| 20260901102112 | 65 | 175 | 0.0 | 0.0 | 0.00 | 0.00 | 0.00 | 84 | |
| 20260901095013 | 65 | 192 | 0.0 | 0.0 | 0.00 | 0.00 | 0.00 | 84 | |
| 20260901091914 | 65 | 171 | 0.0 | 0.0 | 0.00 | 0.00 | 0.00 | 84 | |
| 20260901074612 | 65 | 156 | 0.0 | 0.0 | 0.00 | 0.00 | 0.00 | 83 | |
| 20260901071512 | 65 | 178 | 0.0 | 0.0 | 0.00 | 0.00 | 0.00 | 82 | |
| 20260901061312 | 65 | 135 | 0.0 | 2.0 | 0.00 | 0.00 | 0.00 | 83 | |
| 20260901033815 | 65 | 212 | 1.0 | 5.0 | 0.00 | 0.00 | 0.00 | 80 | |
| 20260901023614 | 65 | 196 | 1.0 | 5.0 | 0.00 | 0.01 | 0.00 | 80 | |
| 20260901013413 | 66 | 233 | 1.0 | 5.0 | 0.00 | 0.02 | 0.00 | 80 | |
| 20260901010313 | 66 | 136 | 0.0 | 5.0 | 0.00 | 0.02 | 0.00 | 78 | |
| 20260901003213 | 65 | 226 | 3.0 | 4.0 | 0.00 | 0.02 | 0.00 | 75 | |
| 20260831225913 | 67 | 210 | 0.0 | 0.0 | 0.00 | 0.02 | 0.00 | 70 |